Location: ???????
(55.3754°N, 39.3545°E)
Time: 07:50:28
(UTC+00:00)

YAOGAN 11 - Pass Details

Date: 14 April 2026
Orbit: 598 x 647 km, 98.4° (Epoch: 9 May)

Event Time Altitude Azimuth Distance (km) Brightness Sun altitude
Rises 17:44:40 0° 20° (NNE) 2,862 7.7 -10.8°
Reaches altitude 10° 17:46:58 10° 28° (NNE) 1,957 6.7 -11.1°
Maximum altitude 17:50:58 40° 99° (E) 898 4.5 -11.5°
Drops below altitude 10° 17:54:59 10° 169° (S) 1,959 6.2 -12.0°
Enters shadow 17:55:10 - 170° (S) 2,031 6.3 -12.0°
